Regional Weather Roundup
Issued by NWS

Home | Current Version | Previous Version | Text Only | Print | Product List | Glossary Off
Versions: 1 2 3 4 5 6 7 8 9 10 11 12 13 14 15 16 17 18 19 20 21 22 23 24 25 26 27 28 29 30 31 32 33 34 35 36 37 38 39 40 41 42 43 44 45 46 47 48 49 50

492
ASUS45 KCYS 290310
RWRWY

WYOMING REGIONAL WEATHER ROUNDUP
NATIONAL WEATHER SERVICE CHEYENNE WY
900 PM MDT TUE MAR 28 2017

NOTE:  "FAIR" INDICATES FEW OR NO CLOUDS BELOW 12,000 FEET
WITH NO SIGNIFICANT WEATHER AND/OR OBSTRUCTIONS TO VISIBILITY.

WYZ001-290400-
YELLOWSTONE NATIONAL PARK

CITY           SKY/WX    TMP DP  RH WIND       PRES   REMARKS
LK YELLOWSTONE   N/A     26  17  68 CALM      30.20R
W YELLOWSTONE  NOT AVBL

$$
WYZ002>013-054>058-071-098>099-290400-
NORTHERN WYOMING

CITY           SKY/WX    TMP DP  RH WIND       PRES   REMARKS
JACKSON        CLEAR     36  23  60 CALM      30.16R
CODY           FAIR      42  26  53 CALM      30.13R
GREYBULL       FAIR      46  37  71 S10       30.10R
WORLAND        FAIR      40  37  89 SE9       30.11R WCI  34
SHERIDAN       FAIR      35  32  88 S6        30.13R WCI  30
BUFFALO        MOCLDY    41  33  73 CALM      30.15R
GILLETTE       CLOUDY    42  37  82 W7        30.12S
HULETT         CLOUDY    43  41  93 N3        30.13R
NEWCASTLE      CLOUDY    39  39 100 CALM      30.14R

$$
WYZ014>020-022>026-101>103-290400-
CENTRAL WYOMING

CITY           SKY/WX    TMP DP  RH WIND       PRES   REMARKS
BIG PINEY      FAIR      32  22  66 N12       30.15R WCI  23
PINEDALE       FAIR      32  21  64 NW14G20   30.15R WCI  22
DUBOIS         FAIR      34  18  51 W14       30.13R WCI  24
LANDER         FAIR      38  31  76 SW6       30.12R WCI  33
RIVERTON       FAIR      40  30  67 E5        30.13R
CASPER         CLOUDY    39  34  82 NE9       30.14R WCI  33
DOUGLAS        CLOUDY    40  38  93 NW3       30.13R

$$
WYZ021-027>030-104>119-290400-
SOUTHERN WYOMING

CITY           SKY/WX    TMP DP  RH WIND       PRES   REMARKS
EVANSTON       FAIR      33  23  66 N12       30.20R WCI  24
KEMMERER         N/A     32  23  69 W12       30.18R WCI  23
FORT BRIDGER   FAIR      35  25  66 W12       30.20S WCI  27
ROCK SPRINGS   CLOUDY    36  32  85 CALM      30.16R
DIXON            N/A     38  30  72 N10G21    30.14R WCI  31
RAWLINS        MOCLDY    35  31  85 N3        30.15R
SARATOGA       CLOUDY    34  34 100 N10G17    30.13R WCI  26
LARAMIE        FLURRIES  32  32 100 N10       30.08R WCI  24
CHEYENNE       CLOUDY    35  34  96 N12       30.07R WCI  27
TORRINGTON     LGT RAIN  40  38  93 NE9       30.10R WCI  34
PINE BLUFFS    CLOUDY    36  36 100 NE7       30.07R WCI  30

$$




USA.gov is the U.S. government's official web portal to all federal, state and local government web resources and services.